AJ5AG Weather Reports


time (UTC)temp
C
wind
direction
speed
KPH
gust
KPH
rain 1hr
cm
rain 24hr
cm
rain mn
cm
humidity
%
barometer
mb
20260509201345 31 120 0.0 3.2 0.00 0.00 0.00 60 1011.2
20260509200842 32 194 1.6 3.2 0.00 0.00 0.00 60 1011.3
20260509200336 31 100 0.0 3.2 0.00 0.00 0.00 63 1011.3
20260509195834 30 83 0.0 0.0 0.00 0.00 0.00 64 1011.5
20260509195334 30 109 0.0 3.2 0.00 0.00 0.00 64 1011.5
20260509194833 30 111 0.0 0.0 0.00 0.00 0.00 64 1011.6
20260509194330 31 111 0.0 0.0 0.00 0.00 0.00 63 1011.7
20260509193827 32 89 3.2 3.2 0.00 0.00 0.00 61 1011.7
20260509193327 31 137 1.6 1.6 0.00 0.00 0.00 64 1011.9
20260509192823 31 220 1.6 3.2 0.00 0.00 0.00 63 1011.9
20260509192319 31 142 1.6 3.2 0.00 0.00 0.00 63 1011.9
20260509191814 31 108 1.6 3.2 0.00 0.00 0.00 63 1011.9
20260509191311 31 77 3.2 3.2 0.00 0.00 0.00 66 1012.1
20260509190806 30 99 0.0 1.6 0.00 0.00 0.00 68 1012.1
20260509190304 31 111 0.0 0.0 0.00 0.00 0.00 68 1012.2
20260509185801 31 107 0.0 0.0 0.00 0.00 0.00 67 1012.3
20260509185257 30 29 1.6 1.6 0.00 0.00 0.00 69 1012.3
20260509184755 30 111 0.0 3.2 0.00 0.00 0.00 67 1012.4
20260509184252 30 126 0.0 0.0 0.00 0.00 0.00 67 1012.5
20260509183748 30 144 0.0 3.2 0.00 0.00 0.00 69 1012.4
20260509183244 30 115 0.0 1.6 0.00 0.00 0.00 71 1012.6
20260509182739 30 86 0.0 1.6 0.00 0.00 0.00 71 1012.6
20260509182237 30 104 1.6 1.6 0.00 0.00 0.00 71 1012.6
20260509181734 30 117 1.6 3.2 0.00 0.00 0.00 70 1012.7
20260509181232 30 107 1.6 3.2 0.00 0.00 0.00 71 1012.9
20260509180729 29 77 1.6 1.6 0.00 0.00 0.00 74 1012.9
20260509180225 29 81 0.0 1.6 0.00 0.00 0.00 72 1013.0
20260509175721 29 43 0.0 3.2 0.00 0.00 0.00 73 1012.9
20260509175218 28 76 0.0 1.6 0.00 0.00 0.00 76 1013.0
20260509174714 28 133 3.2 3.2 0.00 0.00 0.00 76 1012.9
20260509174209 28 212 0.0 1.6 0.00 0.00 0.00 76 1013.2
20260509173706 28 95 0.0 1.6 0.00 0.00 0.00 78 1013.1
20260509173201 28 109 0.0 1.6 0.00 0.00 0.00 77 1013.2
20260509172657 28 119 1.6 1.6 0.00 0.00 0.00 79 1013.2
20260509172154 27 90 0.0 0.0 0.00 0.00 0.00 80 1013.3
20260509171649 27 107 0.0 1.6 0.00 0.00 0.00 79 1013.3
20260509171146 27 111 0.0 0.0 0.00 0.00 0.00 79 1013.2
20260509170643 27 76 0.0 0.0 0.00 0.00 0.00 79 1013.2
20260509170139 27 103 0.0 1.6 0.00 0.00 0.00 78 1013.2
20260509165637 27 101 1.6 1.6 0.00 0.00 0.00 79 1013.3
20260509165133 27 133 1.6 3.2 0.00 0.00 0.00 79 1013.1
20260509164629 27 60 0.0 0.0 0.00 0.00 0.00 80 1013.2
20260509164125 27 81 0.0 1.6 0.00 0.00 0.00 80 1013.4
20260509163623 26 124 0.0 0.0 0.00 0.00 0.00 83 1013.3
20260509163118 26 124 0.0 0.0 0.00 0.00 0.00 82 1013.5
20260509162616 27 92 0.0 1.6 0.00 0.00 0.00 81 1013.6
20260509162112 26 116 0.0 0.0 0.00 0.00 0.00 83 1013.7
20260509161608 26 117 0.0 0.0 0.00 0.00 0.00 84 1013.5
20260509161108 26 92 0.0 0.0 0.00 0.00 0.00 84 1013.6
20260509160605 26 88 0.0 0.0 0.00 0.00 0.00 84 1013.7
20260509160100 26 119 1.6 1.6 0.00 0.00 0.00 84 1013.9
20260509155556 26 79 0.0 1.6 0.00 0.00 0.00 85 1013.7
20260509155053 26 70 0.0 0.0 0.00 0.00 0.00 86 1013.9
20260509154549 26 87 0.0 0.0 0.00 0.00 0.00 87 1013.9
20260509154047 26 87 0.0 1.6 0.00 0.00 0.00 87 1013.7
20260509153543 26 87 0.0 0.0 0.00 0.00 0.00 87 1013.7
20260509153040 25 87 0.0 0.0 0.00 0.00 0.00 88 1013.7
20260509152536 25 87 0.0 0.0 0.00 0.00 0.00 88 1013.5
20260509152033 25 87 0.0 0.0 0.00 0.00 0.00 89 1013.6
20260509151529 25 87 0.0 0.0 0.00 0.00 0.00 89 1013.5
20260509151027 25 87 0.0 0.0 0.00 0.00 0.00 89 1013.3
20260509150525 25 87 0.0 0.0 0.00 0.00 0.00 89 1013.4
20260509150023 25 87 0.0 0.0 0.00 0.00 0.00 88 1013.3
20260509145518 25 86 0.0 0.0 0.00 0.00 0.00 88 1013.4
20260509145013 25 111 0.0 0.0 0.00 0.00 0.00 88 1013.0
20260509144511 25 91 0.0 1.6 0.00 0.00 0.00 89 1013.0
20260509144008 25 80 0.0 0.0 0.00 0.00 0.00 89 1012.9
20260509143504 25 74 0.0 0.0 0.00 0.00 0.00 91 1012.8
20260509143001 25 69 0.0 0.0 0.00 0.00 0.00 94 1012.7
20260509142458 25 44 0.0 1.6 0.00 0.00 0.00 95 1012.5
20260509141953 24 58 1.6 1.6 0.00 0.00 0.00 97 1012.5
20260509141450 23 122 0.0 1.6 0.00 0.00 0.00 97 1012.2
20260509140947 23 89 0.0 3.2 0.00 0.00 0.00 98 1012.7
20260509140443 23 121 0.0 4.8 0.00 0.00 0.00 98 1012.6
20260509135942 23 93 0.0 0.0 0.00 0.00 0.00 98 1012.8
20260509135439 23 80 0.0 1.6 0.00 0.00 0.00 98 1012.9
20260509134936 23 101 0.0 1.6 0.00 0.00 0.00 98 1012.7
20260509134434 23 116 1.6 3.2 0.00 0.00 0.00 98 1013.0
20260509133931 22 119 0.0 1.6 0.00 0.00 0.00 98 1013.1
20260509133427 22 96 0.0 0.0 0.00 0.00 0.00 98 1013.1
20260509132926 22 116 0.0 0.0 0.00 0.00 0.00 98 1013.3
20260509132423 22 102 0.0 0.0 0.00 0.00 0.00 98 1013.3
20260509131920 22 89 0.0 0.0 0.00 0.00 0.00 98 1012.9
20260509131418 22 106 0.0 0.0 0.00 0.00 0.00 98 1013.1
20260509130914 22 107 0.0 0.0 0.00 0.00 0.00 97 1013.1
20260509130409 22 99 0.0 0.0 0.00 0.00 0.00 98 1013.1
20260509125906 22 99 0.0 0.0 0.00 0.00 0.00 97 1013.2
20260509125403 22 99 0.0 0.0 0.00 0.00 0.00 97 1013.3
20260509124858 22 99 0.0 0.0 0.00 0.00 0.00 97 1013.5
20260509124356 22 99 0.0 0.0 0.00 0.00 0.00 97 1013.3
20260509123854 22 99 0.0 0.0 0.00 0.00 0.00 97 1013.3
20260509123351 22 99 0.0 0.0 0.00 0.00 0.00 97 1013.5
20260509122847 22 99 0.0 0.0 0.00 0.00 0.00 97 1013.3
20260509122344 22 99 0.0 0.0 0.00 0.00 0.00 97 1013.4
20260509121841 22 99 0.0 0.0 0.00 0.00 0.00 97 1013.5
20260509121337 22 99 0.0 0.0 0.00 0.00 0.00 97 1013.3
20260509120836 22 99 0.0 0.0 0.00 0.00 0.00 97 1013.4
20260509120333 22 99 0.0 0.0 0.00 0.00 0.00 97 1013.1
20260509115831 22 99 0.0 0.0 0.00 0.00 0.00 97 1013.2
20260509115328 22 99 0.0 0.0 0.00 0.00 0.00 97 1013.1
20260509114826 22 99 0.0 0.0 0.00 0.00 0.00 97 1012.9
20260509114324 22 99 0.0 0.0 0.00 0.00 0.00 97 1012.9
20260509113824 22 99 0.0 0.0 0.00 0.00 0.00 97 1012.8
20260509113320 22 99 0.0 0.0 0.00 0.00 0.00 97 1012.9
20260509112816 22 99 0.0 0.0 0.00 0.00 0.00 97 1012.8
20260509112314 22 99 0.0 0.0 0.00 0.00 0.00 97 1012.8
20260509111811 22 99 0.0 0.0 0.00 0.00 0.00 97 1012.6
20260509111307 22 99 0.0 0.0 0.00 0.00 0.00 97 1012.3
20260509110805 22 99 0.0 0.0 0.00 0.00 0.00 97 1012.3
20260509110301 22 99 0.0 0.0 0.00 0.00 0.00 97 1012.0
20260509105800 22 99 0.0 0.0 0.00 0.00 0.00 97 1012.1
20260509105257 22 99 0.0 0.0 0.00 0.00 0.00 97 1012.2
20260509104754 22 99 0.0 0.0 0.00 0.00 0.00 97 1012.5
20260509104250 22 99 0.0 0.0 0.00 0.00 0.00 97 1012.5
20260509103749 22 99 0.0 0.0 0.00 0.00 0.00 97 1012.8
20260509103246 22 99 0.0 0.0 0.00 0.00 0.00 97 1012.9
20260509102744 22 99 0.0 0.0 0.00 0.00 0.00 97 1012.6
20260509102241 22 99 0.0 0.0 0.00 0.00 0.00 97 1012.7
20260509101737 22 99 0.0 0.0 0.00 0.00 0.00 97 1012.9
20260509101233 22 99 0.0 0.0 0.00 0.00 0.00 97 1012.6
20260509100731 22 99 0.0 0.0 0.00 0.00 0.00 97 1012.9
20260509100228 22 99 0.0 0.0 0.00 0.00 0.00 97 1012.7
20260509095724 22 99 0.0 0.0 0.00 0.00 0.00 97 1012.8
20260509095222 22 99 0.0 0.0 0.00 0.00 0.00 97 1012.7
20260509094719 22 99 0.0 0.0 0.00 0.00 0.00 97 1012.6
20260509094215 22 99 0.0 0.0 0.00 0.00 0.00 97 1012.4
20260509093714 22 99 0.0 0.0 0.00 0.00 0.00 97 1012.6
20260509093211 22 99 0.0 0.0 0.00 0.00 0.00 97 1012.7
20260509092709 22 99 0.0 0.0 0.00 0.00 0.00 97 1012.5
20260509092207 22 99 0.0 0.0 0.00 0.00 0.00 97 1012.5
20260509091704 22 99 0.0 0.0 0.00 0.00 0.00 97 1012.6
20260509091200 22 99 0.0 0.0 0.00 0.00 0.00 97 1012.6
20260509090658 22 99 0.0 0.0 0.00 0.00 0.00 97 1012.7
20260509090155 22 99 0.0 0.0 0.00 0.00 0.00 97 1012.8
20260509085653 22 99 0.0 0.0 0.00 0.00 0.00 97 1012.8
20260509085149 22 99 0.0 0.0 0.00 0.00 0.00 97 1013.0
20260509084646 22 99 0.0 0.0 0.00 0.00 0.00 97 1012.9
20260509084143 22 99 0.0 0.0 0.00 0.00 0.00 97 1013.0
20260509083641 22 99 0.0 0.0 0.00 0.00 0.00 97 1013.1
20260509083137 22 99 0.0 0.0 0.00 0.00 0.00 97 1013.0
20260509082634 22 99 0.0 0.0 0.00 0.00 0.00 97 1012.9
20260509082131 22 99 0.0 0.0 0.00 0.00 0.00 97 1013.1
20260509081628 22 99 0.0 0.0 0.00 0.00 0.00 97 1012.9
20260509081125 22 99 0.0 0.0 0.00 0.00 0.00 97 1013.1
20260509080623 22 99 0.0 0.0 0.00 0.00 0.00 97 1013.0
20260509080121 22 99 0.0 0.0 0.00 0.00 0.00 97 1013.0
20260509075619 22 99 0.0 0.0 0.00 0.00 0.00 97 1013.1
20260509075116 22 99 0.0 0.0 0.00 0.00 0.00 97 1012.9
20260509074613 22 99 0.0 0.0 0.00 0.00 0.00 97 1012.9
20260509074109 22 99 0.0 0.0 0.00 0.00 0.00 97 1012.9
20260509073606 22 99 0.0 0.0 0.00 0.00 0.00 97 1012.9
20260509073102 22 99 0.0 0.0 0.00 0.00 0.00 97 1012.6
20260509072559 22 99 0.0 0.0 0.00 0.00 0.00 97 1012.6
20260509072056 22 99 0.0 0.0 0.00 0.00 0.00 97 1012.8
20260509071553 22 99 0.0 0.0 0.00 0.00 0.00 97 1012.9
20260509071050 22 99 0.0 0.0 0.00 0.00 0.00 97 1012.8
20260509070547 22 99 0.0 0.0 0.00 0.00 0.00 97 1012.8
20260509070043 22 99 0.0 0.0 0.00 0.00 0.00 97 1012.9
20260509065538 22 99 0.0 0.0 0.00 0.00 0.00 97 1012.7
20260509065035 22 99 0.0 0.0 0.00 0.00 0.00 97 1012.9
20260509064533 22 99 0.0 0.0 0.00 0.00 0.00 97 1012.7
20260509064032 22 99 0.0 0.0 0.00 0.00 0.00 96 1012.8
20260509063532 22 92 0.0 0.0 0.00 0.00 0.00 96 1012.8
20260509063030 22 112 0.0 0.0 0.00 0.00 0.00 96 1012.8
20260509062526 22 104 0.0 0.0 0.00 0.00 0.00 96 1012.7
20260509062024 22 96 0.0 0.0 0.00 0.00 0.00 96 1012.6
20260509061521 22 116 0.0 0.0 0.00 0.00 0.00 96 1012.8
20260509061018 22 97 0.0 4.8 0.00 0.00 0.00 96 1012.6
20260509060515 22 115 0.0 4.8 0.00 0.00 0.00 96 1012.8
20260509060011 22 93 3.2 3.2 0.00 0.00 0.00 96 1012.9
20260509055506 22 109 3.2 4.8 0.00 0.00 0.00 96 1013.1
20260509055003 22 90 0.0 6.4 0.00 0.00 0.00 96 1013.0
20260509054500 22 84 0.0 1.6 0.00 0.00 0.00 95 1013.0
20260509053958 22 94 0.0 3.2 0.00 0.00 0.00 95 1012.9
20260509053456 22 120 0.0 3.2 0.00 0.00 0.00 95 1013.0
20260509052953 22 93 0.0 1.6 0.00 0.00 0.00 95 1013.2
20260509052450 22 108 0.0 1.6 0.00 0.00 0.00 95 1013.3
20260509051948 22 100 1.6 3.2 0.00 0.00 0.00 95 1013.1
20260509051446 22 118 0.0 4.8 0.00 0.00 0.00 95 1013.1
20260509050943 22 97 1.6 3.2 0.00 0.00 0.00 95 1013.2
20260509050439 22 121 0.0 3.2 0.00 0.00 0.00 94 1013.1
20260509045936 22 91 3.2 4.8 0.00 0.00 0.00 94 1013.1
20260509045433 22 116 3.2 6.4 0.00 0.00 0.00 94 1013.2
20260509044929 22 100 0.0 1.6 0.00 0.00 0.00 94 1013.2
20260509044428 22 129 1.6 4.8 0.00 0.00 0.00 94 1013.3
20260509043925 22 97 0.0 1.6 0.00 0.00 0.00 94 1013.2
20260509043420 22 115 1.6 4.8 0.00 0.00 0.00 93 1013.0
20260509042916 22 110 1.6 4.8 0.00 0.00 0.00 93 1013.1
20260509042413 22 95 0.0 3.2 0.00 0.00 0.00 93 1013.1
20260509041909 22 139 1.6 3.2 0.00 0.00 0.00 93 1013.0
20260509041406 22 105 1.6 1.6 0.00 0.00 0.00 93 1013.0
20260509040904 22 105 0.0 1.6 0.00 0.00 0.00 92 1013.0
20260509040402 22 110 1.6 3.2 0.00 0.00 0.00 92 1013.0
20260509035859 22 92 0.0 0.0 0.00 0.00 0.00 92 1013.1
20260509035355 22 137 3.2 4.8 0.00 0.00 0.00 92 1013.2
20260509034851 22 106 1.6 4.8 0.00 0.00 0.00 92 1012.9
20260509034350 22 122 1.6 3.2 0.00 0.00 0.00 91 1013.0
20260509033847 22 125 1.6 3.2 0.00 0.00 0.00 91 1012.9
20260509033344 22 101 0.0 3.2 0.00 0.00 0.00 91 1013.0
20260509032840 22 94 0.0 0.0 0.00 0.00 0.00 91 1012.9
20260509032338 22 102 0.0 0.0 0.00 0.00 0.00 91 1012.8
20260509031836 22 95 0.0 3.2 0.00 0.00 0.00 91 1012.6
20260509031333 22 121 3.2 3.2 0.00 0.00 0.00 90 1012.5
20260509030830 22 115 3.2 4.8 0.00 0.00 0.00 90 1012.5
20260509030328 22 96 1.6 4.8 0.00 0.00 0.00 90 1012.5
20260509025824 22 106 0.0 9.7 0.00 0.00 0.00 90 1012.4
20260509025320 22 90 3.2 3.2 0.00 0.00 0.00 90 1012.4
20260509024815 22 98 0.0 3.2 0.00 0.00 0.00 89 1012.4
20260509024312 22 123 0.0 1.6 0.00 0.00 0.00 89 1012.3
20260509023809 22 87 0.0 0.0 0.00 0.00 0.00 89 1012.1
20260509023307 22 104 1.6 4.8 0.00 0.00 0.00 89 1012.1
20260509022803 22 117 3.2 6.4 0.00 0.00 0.00 89 1012.1
20260509022300 22 103 4.8 4.8 0.00 0.00 0.00 89 1012.2
20260509021757 22 112 0.0 1.6 0.00 0.00 0.00 89 1012.3
20260509021254 22 107 0.0 1.6 0.00 0.00 0.00 89 1012.2
20260509020752 22 106 0.0 0.0 0.00 0.00 0.00 89 1012.2
20260509020249 22 98 0.0 3.2 0.00 0.00 0.00 88 1012.2
20260509015747 22 117 0.0 3.2 0.00 0.00 0.00 88 1012.1
20260509015245 22 100 0.0 6.4 0.00 0.00 0.00 87 1012.2
20260509014741 22 134 1.6 3.2 0.00 0.00 0.00 87 1012.1
20260509014238 22 97 1.6 11.3 0.00 0.00 0.00 87 1011.9
20260509013735 23 112 0.0 0.0 0.00 0.00 0.00 87 1011.9
20260509013230 23 117 0.0 0.0 0.00 0.00 0.00 86 1011.9
20260509012727 23 102 0.0 0.0 0.00 0.00 0.00 86 1011.9
20260509012224 23 104 0.0 1.6 0.00 0.00 0.00 86 1011.9
20260509011722 23 86 0.0 0.0 0.00 0.00 0.00 86 1011.6
20260509011219 23 168 4.8 4.8 0.00 0.00 0.00 85 1011.8
20260509010717 23 75 0.0 0.0 0.00 0.00 0.00 85 1011.7
20260509010213 23 94 0.0 0.0 0.00 0.00 0.00 84 1011.9
20260509005711 23 85 0.0 1.6 0.00 0.00 0.00 84 1011.8
20260509005208 23 102 0.0 1.6 0.00 0.00 0.00 83 1011.9
20260509004708 23 95 1.6 1.6 0.00 0.00 0.00 83 1012.0
20260509004206 23 140 0.0 1.6 0.00 0.00 0.00 83 1012.0
20260509003704 23 95 0.0 3.2 0.00 0.00 0.00 82 1011.9
20260509003201 23 107 0.0 3.2 0.00 0.00 0.00 82 1011.8
20260509002658 23 118 0.0 1.6 0.00 0.00 0.00 83 1011.9
20260509002155 23 111 0.0 1.6 0.00 0.00 0.00 83 1011.9
20260509001653 24 98 1.6 6.4 0.00 0.00 0.00 82 1012.0
20260509001148 24 131 0.0 1.6 0.00 0.00 0.00 83 1012.0
20260509000647 24 105 0.0 0.0 0.00 0.00 0.00 84 1012.0
20260509000144 24 101 0.0 0.0 0.00 0.00 0.00 84 1012.1
20260508235641 24 107 0.0 0.0 0.00 0.00 0.00 84 1012.1
20260508235137 24 128 0.0 0.0 0.00 0.00 0.00 84 1012.4
20260508234635 24 109 0.0 0.0 0.00 0.00 0.00 84 1012.0
20260508234131 24 104 0.0 0.0 0.00 0.00 0.00 84 1012.1
20260508233631 24 55 0.0 0.0 0.00 0.00 0.00 84 1012.5
20260508233128 25 109 0.0 0.0 0.00 0.00 0.00 84 1012.1
20260508232625 25 107 0.0 0.0 0.00 0.00 0.00 84 1012.2
20260508232121 25 64 0.0 0.0 0.00 0.00 0.00 84 1011.9
20260508231619 25 104 0.0 0.0 0.00 0.00 0.00 84 1011.8
20260508231116 24 172 0.0 0.0 0.00 0.00 0.00 84 1012.0
20260508230612 25 118 0.0 0.0 0.00 0.00 0.00 83 1012.0
20260508230109 25 132 3.2 4.8 0.00 0.00 0.00 82 1012.1
20260508225607 25 98 1.6 3.2 0.00 0.00 0.00 82 1012.2
20260508225103 25 102 0.0 0.0 0.00 0.00 0.00 81 1012.1
20260508224601 25 101 0.0 3.2 0.00 0.00 0.00 81 1012.3
20260508224058 25 118 0.0 6.4 0.00 0.00 0.00 81 1012.0
20260508223556 25 112 0.0 1.6 0.00 0.00 0.00 81 1012.1
20260508223052 25 110 1.6 9.7 0.00 0.00 0.00 80 1012.0
20260508222550 25 98 0.0 0.0 0.00 0.00 0.00 80 1011.9
20260508222047 25 146 1.6 3.2 0.00 0.00 0.00 78 1012.0
20260508221543 25 80 1.6 1.6 0.00 0.00 0.00 79 1012.1
20260508221038 25 106 0.0 1.6 0.00 0.00 0.00 79 1012.1
20260508220536 25 126 1.6 9.7 0.00 0.00 0.00 79 1012.3
20260508220032 25 94 0.0 1.6 0.00 0.00 0.00 78 1012.1
20260508215529 26 115 0.0 1.6 0.00 0.00 0.00 78 1012.3
20260508215026 26 106 0.0 6.4 0.00 0.00 0.00 77 1012.4
20260508214524 26 110 0.0 0.0 0.00 0.00 0.00 77 1012.3
20260508214020 26 84 0.0 0.0 0.00 0.00 0.00 76 1012.2
20260508213517 26 98 0.0 0.0 0.00 0.00 0.00 77 1012.0
20260508213013 25 90 0.0 1.6 0.00 0.00 0.00 77 1012.2
20260508212509 25 105 0.0 1.6 0.00 0.00 0.00 77 1012.3
20260508212006 25 104 0.0 1.6 0.00 0.00 0.00 77 1012.4
20260508211501 25 95 0.0 1.6 0.00 0.00 0.00 77 1012.4
20260508210958 25 64 0.0 0.0 0.00 0.00 0.00 77 1012.3
20260508210455 25 113 0.0 0.0 0.00 0.00 0.00 76 1012.3
20260508205951 25 87 0.0 1.6 0.00 0.00 0.00 76 1012.5
20260508205449 25 33 0.0 0.0 0.00 0.00 0.00 76 1012.6
20260508204944 25 45 1.6 3.2 0.00 0.00 0.00 76 1012.6
20260508204442 25 96 0.0 0.0 0.00 0.00 0.00 77 1012.9
20260508203937 25 74 0.0 0.0 0.00 0.00 0.00 77 1012.8
20260508203434 25 136 1.6 4.8 0.00 0.00 0.00 76 1013.0
20260508202929 25 69 0.0 0.0 0.00 0.00 0.00 77 1012.9
20260508202427 25 66 0.0 0.0 0.00 0.00 0.00 77 1012.8
20260508201924 25 75 0.0 1.6 0.00 0.00 0.00 77 1013.1